[[{"header":{"parameterUnit":"m.s-1","parameterCategory":1,"la1":30.2991,"la2":30.254,"lo1":-89.0895,"lo2":-89.0444,"dy":0.0017,"dx":0.0017,"nx":28,"ny":28,"refTime":"2024-06-10T21:00:00:Z","depth":0,"parameterNumber":2,"parameterNumberName":"U-component_of_WINDS"},"data":[0,0,0,0,0,0,0,0,0,0,0,0,0,0,0,0,0,0,0,0,0,0,0,0,0,0,0,0,0,0,0,0,0,0,0,0,0,0,0,0,0,0,0,0,0,0,0,0,0,0,0,0,0,0,0,0,0,0,2.5358,2.5361,0,2.5675,2.5679,2.5682,2.5812,2.5811,2.5811,2.581,2.6132,2.614,2.615,0,0,0,0,0,0,0,0,0,0,0,0,0,2.4858,2.4867,2.5358,2.5362,2.5366,2.5675,2.5679,2.5683,2.5812,2.5811,2.5811,2.581,2.6129,2.6139,2.615,0,0,0,0,0,0,0,0,0,0,0,0,0,2.5115,2.4869,2.5357,2.5467,2.548,2.5674,2.5679,2.5685,2.5812,2.5811,2.581,2.5809,2.6125,2.6138,2.6152,2.6258,0,0,2.6194,2.62,0,0,0,0,0,0,0,0,2.51,2.5133,2.5447,2.546,2.5475,2.5703,2.5621,2.5877,2.5813,2.5686,2.581,2.5809,2.599,2.6014,2.6076,2.6273,2.6287,2.6195,2.6204,2.621,2.6214,0,0,0,0,0,0,0,2.5082,2.512,2.5483,2.5451,2.5468,2.5499,2.5535,2.567,2.584,2.5697,2.5707,2.5743,2.5997,2.6063,2.6085,2.6292,2.6195,2.6207,2.6216,2.6221,2.6589,2.6591,0,0,0,0,0,0,2.5047,2.5105,2.5473,2.5493,2.5281,2.5509,2.5549,2.5631,2.5839,2.5869,2.5744,2.5748,2.6039,2.6068,2.6096,2.6234,2.621,2.6223,2.6231,2.6588,2.659,2.6591,0,0,0,0,0,0,2.5036,2.5079,2.546,2.5302,2.5353,2.5519,2.561,2.5638,2.5704,2.5874,2.5905,2.578,2.604,2.6077,2.6217,2.6247,2.6229,2.6241,2.6586,2.6588,2.6591,2.6509,0,0,0,0,0,0,2.5021,2.5074,2.5117,2.5302,2.5361,2.5577,2.5612,2.5645,2.5727,2.5736,2.5916,2.5945,2.6042,2.6195,2.623,2.6265,2.6252,2.6584,2.6587,2.659,2.651,2.6508,2.6506,0,0,0,0,0,2.5003,2.5081,2.5119,2.5163,2.5419,2.5578,2.5612,2.5723,2.5729,2.5774,2.5882,2.5939,2.6237,2.6209,2.6249,2.6289,2.6583,2.6586,2.659,2.651,2.6508,2.6506,0,0,0,0,0,0,2.4896,2.5108,2.5152,2.5293,2.5417,2.56,2.566,2.5718,2.5841,2.5844,2.5975,2.6015,2.6143,2.623,2.6194,2.6401,2.6414,2.6426,2.634,2.634,2.6338,2.6314,2.6264,0,0,0,0,0,2.4889,2.5002,2.5181,2.5288,2.5348,2.5492,2.5566,2.5641,2.5774,2.5826,2.5946,2.6072,2.6194,2.6271,2.6393,2.6522,2.6562,2.6569,2.6567,2.6565,2.6574,2.6646,2.6651,2.6602,2.6602,2.6602,0,0,2.4876,2.5005,2.5069,2.527,2.5374,2.5487,2.5536,2.5653,2.5738,2.5844,2.5984,2.6075,2.6224,2.6358,2.6423,2.6434,2.6596,2.6569,2.6566,2.6577,2.665,2.6655,2.6658,2.6605,2.6604,2.6604,0,0,2.4909,2.5019,2.512,2.5223,2.5381,2.5476,2.55,2.5674,2.5739,2.5881,2.5963,2.6064,2.6272,2.6374,2.6453,2.6521,2.6577,2.6556,2.6549,2.6618,2.6622,2.6626,2.6649,2.6656,2.6564,2.6564,2.6564,0,2.4872,2.5047,2.5164,2.5277,2.5362,2.5463,2.5565,2.5659,2.5848,2.5903,2.5913,2.6175,2.6282,2.644,2.6457,2.6518,2.6547,2.6537,2.6612,2.6617,2.6623,2.6646,2.6655,2.6561,2.6561,2.6561,2.6562,0,2.4993,2.5112,2.5174,2.5355,2.5446,2.5553,2.5684,2.5762,2.5828,2.5921,2.6062,2.6194,2.6344,2.6387,2.6452,2.6554,2.6556,2.6587,2.6603,2.6622,2.6646,2.6656,2.6556,2.6557,2.6558,2.6559,0,0,2.4971,2.5212,2.5233,2.5315,2.5495,2.5589,2.5698,2.5845,2.5909,2.6034,2.6129,2.6301,2.633,2.6419,2.6497,2.6557,2.6601,2.6581,2.6587,2.658,2.6719,2.6695,2.6703,2.6638,2.6641,2.6642,2.6707,0,2.5028,2.523,2.5337,2.5494,2.5604,2.57,2.5795,2.5915,2.6004,2.6109,2.6207,2.6327,2.6357,2.6411,2.6476,2.6582,2.663,2.6579,2.6726,2.673,2.6686,2.6717,2.6692,2.6746,2.6717,2.6719,2.672,0,2.5122,2.5247,2.5414,2.5579,2.563,2.5714,2.5855,2.5955,2.6091,2.6152,2.625,2.6326,2.6442,2.6448,2.661,2.6572,2.6638,2.6699,2.6704,2.6722,2.6726,2.6735,2.6767,2.6774,2.6736,2.6735,2.6734,0,2.5087,2.5297,2.5424,2.5491,2.5687,2.5743,2.5827,2.5963,2.6043,2.6166,2.622,2.6354,2.6427,2.6529,2.6637,2.6632,2.6788,2.6803,2.684,2.6837,2.6869,2.6866,2.6911,2.6911,2.6911,2.6911,2.6911,0,2.514,2.5238,2.5411,2.5489,2.5601,2.5721,2.5828,2.592,2.6038,2.6134,2.6225,2.6313,2.6451,2.6555,2.6641,2.6761,2.6793,2.6844,2.6866,2.6837,2.683,2.6882,2.6881,2.6913,2.6913,2.6912,2.6912,0,2.5121,2.5241,2.5385,2.5558,2.5604,2.5679,2.5826,2.5904,2.5997,2.6117,2.6152,2.6297,2.6424,2.6543,2.6712,2.6769,2.689,2.6918,2.6844,2.6856,2.6886,2.6881,2.6967,2.6984,2.6971,2.6971,2.6971,0,2.5147,2.5225,2.5406,2.5477,2.5559,2.5673,2.5755,2.5875,2.5957,2.6117,2.6175,2.6309,2.6423,2.6621,2.674,2.6869,2.6901,2.6922,2.6921,2.6888,2.6901,2.6895,2.6903,2.692,2.6919,2.6919,2.6919,0,2.518,2.5235,2.5351,2.5486,2.5582,2.5695,2.581,2.5863,2.6004,2.6091,2.6223,2.631,2.6483,2.6614,2.6756,2.6841,2.6903,2.6918,2.6933,2.6904,2.6858,2.6883,2.6839,2.6916,2.6916,2.6916,2.6916,2.6916,2.5185,2.5257,2.5396,2.5521,2.562,2.5725,2.5807,2.5909,2.6021,2.6172,2.6235,2.6368,2.65,2.6698,2.6781,2.6885,2.6899,2.6921,2.6927,2.6931,2.6924,2.6841,2.6912,2.6912,2.6912,2.6912,2.6913,0,2.5222,2.5315,2.5429,2.5587,2.5685,2.5735,2.5864,2.5942,2.6058,2.6177,2.6286,2.6436,2.6563,2.6691,2.6825,2.6883,2.6915,2.6914,2.6911,2.6929,2.6905,2.6878,2.6886,2.6886,2.6886,2.6886,2.6886,2.6886,2.5252,2.5378,2.5448,2.5623,2.5716,2.5847,2.5916,2.6013,2.6108,2.6271,2.6377,2.646,2.6582,2.6725,2.6843,2.6877,2.6922,2.6913,2.6955,2.693,2.6931,2.6932,2.6908,2.6922,2.6922,2.6971,2.6972,2.6972]},{"header":{"parameterUnit":"m.s-1","parameterCategory":1,"la1":30.2991,"la2":30.254,"lo1":-89.0895,"lo2":-89.0444,"dy":0.0017,"dx":0.0017,"nx":28,"ny":28,"refTime":"2024-06-10T21:00:00:Z","depth":0,"parameterNumber":3,"parameterNumberName":"V-component_of_WINDS"},"data":[0,0,0,0,0,0,0,0,0,0,0,0,0,0,0,0,0,0,0,0,0,0,0,0,0,0,0,0,0,0,0,0,0,0,0,0,0,0,0,0,0,0,0,0,0,0,0,0,0,0,0,0,0,0,0,0,0,0,3.5707,3.5707,0,3.5761,3.5762,3.5763,3.5797,3.5798,3.5798,3.5798,3.585,3.5851,3.5853,0,0,0,0,0,0,0,0,0,0,0,0,0,3.563,3.5631,3.5707,3.5707,3.5708,3.5761,3.5762,3.5763,3.5797,3.5798,3.5798,3.5798,3.585,3.5851,3.5853,0,0,0,0,0,0,0,0,0,0,0,0,0,3.5672,3.5632,3.5707,3.5732,3.5735,3.5761,3.5762,3.5763,3.5797,3.5798,3.5798,3.5798,3.5849,3.5851,3.5853,3.5857,0,0,3.5858,3.5859,0,0,0,0,0,0,0,0,3.5669,3.5674,3.5727,3.573,3.5733,3.5773,3.5754,3.5795,3.5797,3.5773,3.5798,3.5798,3.5824,3.5828,3.5837,3.586,3.5862,3.5859,3.586,3.586,3.5861,0,0,0,0,0,0,0,3.5666,3.5672,3.5728,3.5728,3.5732,3.574,3.5746,3.5762,3.5796,3.5776,3.5778,3.5784,3.5826,3.5836,3.5839,3.5863,3.5858,3.586,3.5861,3.5862,3.5893,3.5893,0,0,0,0,0,0,3.566,3.567,3.5727,3.573,3.5702,3.5741,3.5748,3.576,3.5796,3.5802,3.5784,3.5786,3.5832,3.5837,3.5841,3.585,3.586,3.5862,3.5863,3.5894,3.5893,3.5893,0,0,0,0,0,0,3.5658,3.5665,3.5724,3.5701,3.5709,3.5742,3.5755,3.5761,3.5771,3.5803,3.5809,3.5788,3.5833,3.5838,3.5854,3.5852,3.5863,3.5864,3.5894,3.5893,3.5893,3.5866,0,0,0,0,0,0,3.5656,3.5664,3.5666,3.57,3.571,3.5737,3.5755,3.5762,3.5774,3.5777,3.5808,3.5813,3.5833,3.5851,3.5855,3.5854,3.5866,3.5894,3.5894,3.5893,3.5867,3.5865,3.5863,0,0,0,0,0,3.5653,3.5655,3.5666,3.5673,3.5714,3.5737,3.5742,3.5766,3.5774,3.5777,3.5797,3.5812,3.5851,3.5852,3.5858,3.5857,3.5894,3.5894,3.5893,3.5868,3.5865,3.5863,0,0,0,0,0,0,3.5618,3.566,3.5673,3.5686,3.5708,3.5743,3.5746,3.5762,3.5781,3.5783,3.5811,3.5817,3.583,3.5845,3.5845,3.5864,3.5875,3.5875,3.5854,3.5851,3.5849,3.5845,3.5867,0,0,0,0,0,3.5612,3.5628,3.5664,3.5672,3.5683,3.5713,3.5724,3.5741,3.5764,3.5772,3.5794,3.5815,3.5832,3.5842,3.586,3.587,3.5877,3.5872,3.587,3.5868,3.5868,3.5876,3.5874,3.5891,3.5891,3.5891,0,0,3.56,3.5625,3.5633,3.5666,3.5685,3.57,3.572,3.5735,3.5747,3.5774,3.5791,3.5807,3.5832,3.5846,3.5852,3.5858,3.5865,3.5867,3.5866,3.5867,3.5875,3.5873,3.5872,3.5891,3.5891,3.5891,0,0,3.5586,3.5606,3.5616,3.5635,3.5664,3.5684,3.5687,3.5719,3.5732,3.575,3.5771,3.5785,3.5813,3.5831,3.5843,3.5838,3.5852,3.5842,3.583,3.5837,3.5836,3.5835,3.5834,3.5833,3.5842,3.5842,3.5842,0,3.5566,3.5591,3.5619,3.5634,3.5648,3.5676,3.5686,3.5702,3.5735,3.5744,3.575,3.5788,3.5807,3.5825,3.5824,3.5833,3.5837,3.5839,3.5834,3.5833,3.5833,3.5832,3.5831,3.5841,3.5841,3.5841,3.5841,0,3.5567,3.5584,3.5588,3.5621,3.5636,3.5648,3.5677,3.5688,3.5705,3.5724,3.5742,3.5765,3.5789,3.5794,3.5809,3.5815,3.5818,3.5829,3.584,3.5829,3.5829,3.5829,3.5839,3.5839,3.584,3.584,0,0,3.5531,3.558,3.5581,3.5597,3.5632,3.5645,3.5659,3.5683,3.5693,3.5714,3.5727,3.5751,3.5762,3.5777,3.5794,3.58,3.5795,3.5811,3.5812,3.5808,3.5804,3.5796,3.5795,3.5806,3.5806,3.5806,3.5802,0,3.5522,3.5549,3.5575,3.5593,3.561,3.5637,3.5649,3.5671,3.569,3.5706,3.5726,3.5744,3.5757,3.5766,3.5773,3.5794,3.5795,3.5795,3.5817,3.5817,3.581,3.5794,3.5785,3.5781,3.5802,3.5802,3.5802,0,3.5515,3.5537,3.5557,3.5592,3.56,3.561,3.5636,3.5651,3.5677,3.569,3.5707,3.5726,3.5742,3.5751,3.5773,3.5773,3.5783,3.5795,3.5796,3.5799,3.5809,3.5797,3.578,3.5779,3.5802,3.5802,3.5802,0,3.5487,3.5522,3.5539,3.5552,3.5592,3.5599,3.5616,3.5643,3.5657,3.5678,3.5688,3.571,3.5722,3.5739,3.5764,3.5769,3.5784,3.5795,3.5795,3.5794,3.5796,3.5796,3.5781,3.5803,3.5803,3.5803,3.5803,0,3.5475,3.5486,3.5528,3.5538,3.5552,3.5582,3.5594,3.5613,3.5637,3.5651,3.5676,3.5688,3.572,3.5736,3.5756,3.5771,3.5776,3.5788,3.5793,3.5786,3.5784,3.5793,3.5794,3.5803,3.5803,3.5803,3.5803,0,3.5446,3.5475,3.5495,3.5533,3.5543,3.5551,3.5583,3.5594,3.5615,3.5632,3.5638,3.5671,3.5691,3.5718,3.5746,3.5759,3.5773,3.5781,3.5765,3.5768,3.5766,3.5766,3.5756,3.5757,3.5778,3.5777,3.5777,0,3.5436,3.5446,3.5485,3.5497,3.5514,3.5533,3.5548,3.5578,3.5592,3.5623,3.563,3.5653,3.5673,3.5705,3.5731,3.5753,3.5761,3.5756,3.5765,3.5758,3.5762,3.5761,3.5763,3.5754,3.5754,3.5753,3.5753,0,3.5416,3.543,3.5451,3.5477,3.5494,3.5516,3.5539,3.5547,3.5581,3.5596,3.5619,3.5634,3.5665,3.5687,3.5713,3.573,3.5747,3.5751,3.5752,3.5745,3.5736,3.5741,3.5759,3.575,3.5751,3.5751,3.5751,3.5751,3.5397,3.5407,3.5437,3.546,3.5481,3.5502,3.5514,3.5538,3.5557,3.5586,3.5602,3.5624,3.5651,3.5688,3.5704,3.5722,3.5728,3.5729,3.573,3.573,3.5728,3.5733,3.5726,3.5726,3.5726,3.5727,3.5727,0,3.5378,3.5399,3.542,3.5452,3.547,3.5487,3.5513,3.5527,3.5546,3.557,3.5591,3.5617,3.5639,3.5667,3.5692,3.57,3.5709,3.5706,3.5705,3.5709,3.5721,3.5717,3.5699,3.5699,3.5699,3.5699,3.5699,3.5699,3.5371,3.539,3.5408,3.5437,3.5458,3.5481,3.5495,3.5515,3.5534,3.5563,3.5583,3.5602,3.5628,3.5654,3.5676,3.5683,3.5691,3.5686,3.5696,3.5706,3.5708,3.5711,3.5708,3.5687,3.5687,3.5683,3.5683,3.5683]}]]